Weather in Port Mathurin

Mauritius     19°40′50″S   63°25′19″E
temp.,
°C
wind,
m/s
gust,
m/s
humid.,
%
clouds,
%
prec.,
mm/h
press.,
hPa
HPBL,
m
19 september, sun
sun1901:00+23n888476 0.1 1014550
04:00+23n778430 0.7 1014663
07:00+23nw568332 4.6 1016436
10:00+24nw56775 5.3 1016570
13:00+24nw5678100 0.4 1014445
16:00+23sw668080 1.3 1014631
19:00+23ssw667622 0.1 1016784
22:00+23s667895 0.1 1018754
20 september, mon
mon2001:00+22s777815 0.1 1017795
04:00+22sse887862 0.2 1017913
07:00+22sse987693 0.3 1019907
10:00+22sse887212 0.3 1020894
13:00+22sse877128 0.0 10181020
16:00+22sse996898 0.0 10181110
19:00+22se996773 0.0 10211318
22:00+22se11107259 0.1 10211175
21 september, tue
tue2101:00+22se111171100 0.2 10201220
04:00+22se111071100 0.4 10201026
07:00+22se111071100 0.1 1022971
10:00+21se11107292 0.3 10221125
13:00+21se11117295 0.1 10211166
16:00+22se11117295 0.3 10201220
19:00+21ese11107371 0.2 10211135
22:00+22ese10972100 0.3 1022873
22 september, wed
wed2201:00+22ese887197 0.2 10211013
04:00+22ese8869100 0.2 1020849
07:00+22ese997066 0.0 1021840
10:00+22ese1010704 0.1 10211065
13:00+22ese109705 0.0 10191055
16:00+22ese99729 0.1 10191148
19:00+22ese997313 0.4 10201031
22:00+22ese997296 1.0 10201021
23 september, thu
thu2301:00+22e99744 0.4 1020933
04:00+21ese787771 1.0 1019574
07:00+22ese997491 1.8 10201068
10:00+22ese1097646 1.9 10201016
13:00+22ese9107827 0.2 1019898
16:00+22ese10118071 0.6 1018867
19:00+23ese11128190 1.2 1020953
22:00+23ese12137937 2.5 10201050